Back to catalog

ARKTIKA-M 1

LostWeatherHEO
NORAD 47719·PAYLOAD·🇷🇺 Russia

Launched Feb 28, 2021 from Baikonur Cosmodrome

Loading…

Next Passes (next 24 hours)

TLE

StaleSource: Space-Track

Epoch: Jul 25, 2026, 20:56 UTC

1 47719U 21016A   26206.87236863 -.00000386  00000-0  00000-0 0  9995
2 47719  63.2598  51.9767 7301002 270.1217  14.4714  2.00607275 39564

Track ARKTIKA-M 1 in real time with AllMySat

Download on the App Store